Location: Czu?�w
(50.1404°N, 18.9919°E)
Time: 03:11:47
(UTC+00:00)

NOAA 12 - Pass Details

Date: 27 October 2020
Orbit: 796 x 815 km, 98.5° (Epoch: 27 November)

Event Time Altitude Azimuth Distance (km) Brightness Sun altitude
Rises 15:50:49 0° 158° (SSE) 3,312 7.2 -4.2°
Reaches altitude 10° 15:53:08 10° 157° (SSE) 2,388 6.5 -4.6°
Maximum altitude 15:58:25 77° 72° (ENE) 839 4.1 -5.4°
Drops below altitude 10° 16:03:46 10° 348° (NNW) 2,415 6.6 -6.2°
Sets 16:06:07 0° 347° (NNW) 3,353 7.3 -6.6°
